SCP
0 0 0 0 0 0 0 0 0 0 0 0 -0 -0 0 -0 -0 -0 -0 -0 -0 -0 -0 -0 -0 -0 -0 -0 -0 -0 -0 -0
0 0 0 0 0 0 0 0 -0 0 0 0 0 -0 -0 -0 -0 -0 -0 -0 -0 -0 -0 -0 -0 -0 -0 -0 -0 -0 -0 -0
0 0 0 0 0 0 0 0 -0 0 0 0 0 0 -0 -0 -0 0 0 0 0 -0 -0 -0 -0 -0 -0 -0 -0 -0 -0 -0
0 0 0 0 0 0 0 0 -0 0 0 0 0 0 0 -0 0 0 0 0 0 0 0 -0 -0 -0 -0 -0 -0 -0 -0 -0
0 0 0 0 0 0 0 0 0 0 0 0 0 0 0 0 0 0 1 0 0 0 -0 -0 -0 -0 -0 -0 -0 -0 0 0
0 0 0 0 0 0 -0 0 0 0 0 0 0 0 0 0 0 0 1 0 0 0 0 0 0 -0 -0 0 0 0 0 0
0 0 0 0 0 0 0 0 0 0 0 1 0 0 0 0 0 0 0 0 0 0 0 0 0 0 0 0 0 0 0 0
0 0 0 0 0 0 0 0 0 1 0 1 1 0 0 0 0 0 0 0 0 0 0 0 0 0 0 0 0 0 0 0
0 0 0 0 0 0 0 0 0 0 0 0 0 1 0 0 0 0 0 0 0 0 0 0 0 0 0 0 0 0 0 0
0 0 0 0 0 0 0 0 0 0 0 0 0 0 0 0 0 0 0 0 0 0 0 0 0 0 0 0 0 0 0 0
0 0 0 0 0 0 0 0 0 0 0 0 0 0 0 0 1 0 0 0 0 0 0 0 0 0 0 0 0 0 0 0
0 0 0 0 0 0 0 0 0 0 0 0 0 0 0 0 0 0 0 0 0 0 0 0 0 0 0 0 0 0 0 0
0 0 0 0 0 0 0 0 0 0 0 0 0 0 0 0 0 0 0 0 0 0 0 0 0 0 0 0 0 0 0 0
0 0 0 0 0 0 0 0 0 0 0 0 0 0 0 0 0 0 0 0 0 0 0 0 0 0 0 0 0 0 0 0
0 0 0 0 0 0 0 0 0 0 0 0 0 0 0 0 0 0 0 0 0 -0 0 0 0 0 0 0 0 0 0 0
0 0 0 0 0 0 0 0 0 0 0 -0 -0 0 -0 0 0 0 0 0 -0 0 -0 0 -0 -0 -0 1 1 0 0 0
0 0 0 0 0 0 0 0 0 0 0 0 -0 -0 -0 -0 0 0 0 0 0 0 -0 -0 -0 -0 0 0 1 1 2 1
0 0 0 0 0 0 0 0 0 0 0 0 0 0 0 -0 -0 0 0 0 0 0 0 -0 -0 -0 -0 -1 -0 1 1 1
0 0 0 0 0 0 0 0 0 0 0 0 -0 0 0 0 -0 0 0 0 0 0 0 0 -0 -0 -0 0 1 0 0 0
0 0 0 0 0 0 0 0 0 0 0 0 0 0 0 0 0 0 0 0 0 0 0 0 0 0 0 0 1 0 0 0
Wind_Speed_500mb
7 8 11 10 8 8 21 25 9 21 24 14 12 12 9 33 55 67 67 66 62 54 48 45 45 40 35 30 28 29 32 35
7 13 10 11 6 6 14 28 27 22 12 16 30 17 30 34 46 68 67 64 60 53 45 41 41 39 35 29 25 24 27 30
4 9 7 11 16 27 8 12 43 40 13 12 11 18 22 57 52 66 65 61 55 50 44 41 39 38 35 31 26 22 21 23
9 7 7 12 22 19 9 29 20 14 17 7 7 8 18 52 61 63 59 57 51 46 40 37 36 37 35 31 27 23 19 18
7 4 6 8 13 5 7 16 9 7 6 13 15 13 42 54 60 57 55 53 49 45 40 37 36 37 36 31 28 24 20 17
8 9 8 5 27 6 16 5 5 2 7 9 26 34 44 47 47 47 48 46 44 41 37 36 37 37 35 32 30 27 23 20
9 10 7 17 7 11 20 22 19 12 25 34 42 40 38 36 40 42 40 38 36 35 35 34 34 34 34 33 31 28 26 25
8 7 1 17 6 9 9 21 28 36 43 43 42 37 37 38 42 41 41 39 35 32 29 27 29 32 34 34 32 30 29 27
6 14 2 12 10 7 22 11 11 26 44 50 44 37 41 44 40 37 34 38 39 34 29 26 25 28 30 33 32 32 32 30
9 5 7 11 8 9 4 22 28 36 43 50 49 38 37 40 34 30 35 35 38 35 31 29 26 25 27 31 33 32 31 32
9 14 20 21 6 13 17 23 34 41 35 38 28 20 25 32 31 21 19 29 34 38 40 36 29 26 28 26 31 31 32 34
7 19 21 7 7 16 23 18 19 34 31 28 25 14 24 39 39 37 26 17 31 38 37 34 29 29 26 25 24 31 38 37
15 14 12 4 10 14 39 25 21 18 22 23 20 11 9 20 50 53 50 33 33 37 39 36 29 32 28 32 34 33 31 32
19 21 14 19 17 9 35 28 12 16 13 16 9 5 7 11 28 35 43 45 38 53 51 50 38 30 31 42 39 44 41 39
11 13 9 13 8 16 30 26 18 10 18 23 10 5 2 10 24 29 39 41 40 44 64 62 46 45 49 52 42 45 51 52
26 11 11 6 8 6 20 29 31 16 12 19 16 17 12 16 30 36 35 40 46 44 47 65 64 52 59 55 50 59 56 55
5 14 9 12 9 13 18 15 22 17 13 14 12 16 19 28 33 38 36 33 38 38 43 66 59 47 56 57 65 69 64 60
3 10 14 11 14 16 16 14 24 23 14 10 13 24 35 41 44 42 33 32 35 24 24 43 67 77 71 59 53 58 59 59
4 8 4 11 10 5 12 21 22 37 28 13 21 35 43 48 49 43 38 33 35 30 21 28 39 49 63 73 67 58 59 55
7 3 9 13 12 10 13 18 14 44 30 28 25 29 45 51 50 45 40 37 33 28 27 34 35 38 42 41 46 58 57 61
Wind_Direction_500mb
110 123 170 221 188 155 316 341 228 149 180 236 272 302 224 180 172 175 176 176 174 177 179 179 179 176 171 163 153 150 156 161
109 209 240 226 299 340 332 324 216 177 137 209 241 294 186 183 177 177 176 175 174 176 181 183 184 179 176 173 164 158 160 168
232 241 249 249 295 297 275 241 250 177 157 131 167 228 189 181 173 178 175 173 174 177 182 185 187 186 181 182 179 173 168 174
228 222 255 281 289 316 311 354 296 194 120 91 127 176 162 175 172 176 175 172 174 177 185 188 190 191 189 187 191 188 181 186
232 212 284 254 319 313 313 32 324 186 65 129 126 150 164 170 171 174 174 173 178 179 185 189 194 195 194 193 198 203 198 200
226 190 252 257 328 350 23 27 93 227 108 81 122 144 157 164 169 175 174 177 182 182 188 192 195 197 198 200 203 207 211 214
194 160 238 333 334 97 49 55 62 32 104 120 146 149 149 156 164 170 174 181 186 191 194 197 198 199 200 207 211 215 219 223
217 180 106 316 347 101 70 40 65 78 106 134 152 152 146 145 160 171 178 183 189 199 203 204 207 206 208 214 219 224 229 232
228 243 19 319 13 25 119 34 69 122 128 133 147 160 159 156 163 169 174 188 191 196 200 213 219 224 224 228 229 234 238 240
242 232 319 319 350 36 64 131 102 138 142 128 137 152 165 165 170 185 176 187 199 198 200 210 219 237 239 246 249 245 249 252
236 299 286 286 282 128 111 113 97 116 141 163 156 160 169 181 173 165 184 196 186 199 207 211 215 224 241 246 257 261 257 256
266 276 286 277 246 137 166 136 109 116 113 124 162 205 220 202 190 194 193 199 216 204 209 218 215 217 224 234 255 264 255 259
227 228 236 189 272 192 176 165 133 121 120 145 153 172 259 245 231 232 242 225 217 206 202 204 199 206 208 236 233 249 257 247
244 173 243 159 265 197 168 175 179 148 139 147 168 344 341 253 226 232 224 245 252 222 239 227 222 214 224 234 233 235 247 251
309 182 165 156 197 255 171 149 147 264 116 139 146 238 226 266 204 207 223 221 223 240 241 237 211 210 240 250 254 257 256 255
220 197 187 180 211 255 165 157 154 163 271 143 177 191 209 207 187 197 211 227 224 242 226 235 216 226 241 253 266 260 258 261
131 227 136 195 197 241 232 197 165 183 207 270 167 180 173 175 179 199 216 224 239 248 237 224 221 227 242 258 265 263 259 268
262 190 169 195 221 228 244 253 253 232 215 205 195 189 180 164 171 186 193 206 220 234 244 246 237 244 255 267 276 269 271 269
174 180 156 114 304 225 272 276 256 268 274 231 194 177 186 178 174 176 180 185 200 212 219 228 237 251 262 268 264 264 265 262
247 128 208 158 257 252 230 258 261 254 234 237 211 195 183 180 178 179 177 176 184 196 215 236 246 254 265 274 263 260 266 267
Wind_Speed_850mb
7 8 11 10 8 8 21 25 9 21 24 14 12 12 9 33 55 67 67 66 62 54 48 45 45 40 35 30 28 29 32 35
7 13 10 11 6 6 14 28 27 22 12 16 30 17 30 34 46 68 67 64 60 53 45 41 41 39 35 29 25 24 27 30
4 9 7 11 16 27 8 12 43 40 13 12 11 18 22 57 52 66 65 61 55 50 44 41 39 38 35 31 26 22 21 23
9 7 7 12 22 19 9 29 20 14 17 7 7 8 18 52 61 63 59 57 51 46 40 37 36 37 35 31 27 23 19 18
7 4 6 8 13 5 7 16 9 7 6 13 15 13 42 54 60 57 55 53 49 45 40 37 36 37 36 31 28 24 20 17
8 9 8 5 27 6 16 5 5 2 7 9 26 34 44 47 47 47 48 46 44 41 37 36 37 37 35 32 30 27 23 20
9 10 7 17 7 11 20 22 19 12 25 34 42 40 38 36 40 42 40 38 36 35 35 34 34 34 34 33 31 28 26 25
8 7 1 17 6 9 9 21 28 36 43 43 42 37 37 38 42 41 41 39 35 32 29 27 29 32 34 34 32 30 29 27
6 14 2 12 10 7 22 11 11 26 44 50 44 37 41 44 40 37 34 38 39 34 29 26 25 28 30 33 32 32 32 30
9 5 7 11 8 9 4 22 28 36 43 50 49 38 37 40 34 30 35 35 38 35 31 29 26 25 27 31 33 32 31 32
9 14 20 21 6 13 17 23 34 41 35 38 28 20 25 32 31 21 19 29 34 38 40 36 29 26 28 26 31 31 32 34
7 19 21 7 7 16 23 18 19 34 31 28 25 14 24 39 39 37 26 17 31 38 37 34 29 29 26 25 24 31 38 37
15 14 12 4 10 14 39 25 21 18 22 23 20 11 9 20 50 53 50 33 33 37 39 36 29 32 28 32 34 33 31 32
19 21 14 19 17 9 35 28 12 16 13 16 9 5 7 11 28 35 43 45 38 53 51 50 38 30 31 42 39 44 41 39
11 13 9 13 8 16 30 26 18 10 18 23 10 5 2 10 24 29 39 41 40 44 64 62 46 45 49 52 42 45 51 52
26 11 11 6 8 6 20 29 31 16 12 19 16 17 12 16 30 36 35 40 46 44 47 65 64 52 59 55 50 59 56 55
5 14 9 12 9 13 18 15 22 17 13 14 12 16 19 28 33 38 36 33 38 38 43 66 59 47 56 57 65 69 64 60
3 10 14 11 14 16 16 14 24 23 14 10 13 24 35 41 44 42 33 32 35 24 24 43 67 77 71 59 53 58 59 59
4 8 4 11 10 5 12 21 22 37 28 13 21 35 43 48 49 43 38 33 35 30 21 28 39 49 63 73 67 58 59 55
7 3 9 13 12 10 13 18 14 44 30 28 25 29 45 51 50 45 40 37 33 28 27 34 35 38 42 41 46 58 57 61
Wind_Direction_850mb
110 123 170 221 188 155 316 341 228 149 180 236 272 302 224 180 172 175 176 176 174 177 179 179 179 176 171 163 153 150 156 161
109 209 240 226 299 340 332 324 216 177 137 209 241 294 186 183 177 177 176 175 174 176 181 183 184 179 176 173 164 158 160 168
232 241 249 249 295 297 275 241 250 177 157 131 167 228 189 181 173 178 175 173 174 177 182 185 187 186 181 182 179 173 168 174
228 222 255 281 289 316 311 354 296 194 120 91 127 176 162 175 172 176 175 172 174 177 185 188 190 191 189 187 191 188 181 186
232 212 284 254 319 313 313 32 324 186 65 129 126 150 164 170 171 174 174 173 178 179 185 189 194 195 194 193 198 203 198 200
226 190 252 257 328 350 23 27 93 227 108 81 122 144 157 164 169 175 174 177 182 182 188 192 195 197 198 200 203 207 211 214
194 160 238 333 334 97 49 55 62 32 104 120 146 149 149 156 164 170 174 181 186 191 194 197 198 199 200 207 211 215 219 223
217 180 106 316 347 101 70 40 65 78 106 134 152 152 146 145 160 171 178 183 189 199 203 204 207 206 208 214 219 224 229 232
228 243 19 319 13 25 119 34 69 122 128 133 147 160 159 156 163 169 174 188 191 196 200 213 219 224 224 228 229 234 238 240
242 232 319 319 350 36 64 131 102 138 142 128 137 152 165 165 170 185 176 187 199 198 200 210 219 237 239 246 249 245 249 252
236 299 286 286 282 128 111 113 97 116 141 163 156 160 169 181 173 165 184 196 186 199 207 211 215 224 241 246 257 261 257 256
266 276 286 277 246 137 166 136 109 116 113 124 162 205 220 202 190 194 193 199 216 204 209 218 215 217 224 234 255 264 255 259
227 228 236 189 272 192 176 165 133 121 120 145 153 172 259 245 231 232 242 225 217 206 202 204 199 206 208 236 233 249 257 247
244 173 243 159 265 197 168 175 179 148 139 147 168 344 341 253 226 232 224 245 252 222 239 227 222 214 224 234 233 235 247 251
309 182 165 156 197 255 171 149 147 264 116 139 146 238 226 266 204 207 223 221 223 240 241 237 211 210 240 250 254 257 256 255
220 197 187 180 211 255 165 157 154 163 271 143 177 191 209 207 187 197 211 227 224 242 226 235 216 226 241 253 266 260 258 261
131 227 136 195 197 241 232 197 165 183 207 270 167 180 173 175 179 199 216 224 239 248 237 224 221 227 242 258 265 263 259 268
262 190 169 195 221 228 244 253 253 232 215 205 195 189 180 164 171 186 193 206 220 234 244 246 237 244 255 267 276 269 271 269
174 180 156 114 304 225 272 276 256 268 274 231 194 177 186 178 174 176 180 185 200 212 219 228 237 251 262 268 264 264 265 262
247 128 208 158 257 252 230 258 261 254 234 237 211 195 183 180 178 179 177 176 184 196 215 236 246 254 265 274 263 260 266 267